Wind_Speed
32 31 29 28 28 28 27 26 25 25 26 25 23 21 19 17 15 14 12 9 8 7 6 6 7 7 7 7 7 7 7 7 6 5 6 5 5 5 4 4 5 5 6 7
32 31 30 31 31 30 29 27 27 27 28 27 25 23 20 19 16 15 13 11 10 9 8 6 7 7 8 8 8 8 8 8 7 7 7 7 6 6 5 5 6 7 8 8
31 31 32 32 32 31 30 29 28 28 30 29 28 25 23 20 19 16 14 13 12 11 10 8 8 9 9 9 9 9 9 9 9 9 9 8 7 7 7 7 7 8 9 9
32 32 32 33 32 31 30 29 30 30 31 31 30 27 24 22 20 17 15 14 13 12 11 10 10 10 10 10 10 9 9 9 10 10 9 9 8 8 8 8 8 8 9 10
32 32 32 32 31 31 30 31 31 31 32 33 32 29 24 23 20 18 16 15 14 13 12 12 11 11 11 11 10 10 10 10 10 10 10 10 9 9 9 9 9 10 9 10
33 33 32 31 31 31 32 33 32 32 33 34 31 30 25 22 20 18 16 16 15 14 14 14 13 12 12 12 11 11 10 10 10 11 11 11 10 10 9 9 10 10 10 11
33 32 31 31 32 32 33 33 33 33 34 33 30 30 26 21 19 18 17 15 15 14 14 14 14 12 12 12 11 10 10 9 10 10 11 11 11 11 10 10 10 11 11 12
32 32 31 31 32 32 32 33 33 34 33 32 30 30 25 21 19 18 18 16 15 14 14 14 14 13 12 12 10 10 10 9 9 10 10 10 10 11 11 11 11 12 11 12
32 32 32 31 31 32 33 33 33 33 33 33 32 29 24 21 19 18 17 17 15 14 14 14 14 13 12 12 11 10 10 10 10 10 10 9 9 10 10 11 11 12 12 13
32 32 32 32 33 33 33 33 34 34 34 33 31 28 24 21 19 18 17 17 16 15 15 15 14 14 13 12 11 11 10 10 11 11 10 9 9 9 10 10 11 12 13 14
31 31 32 33 33 33 34 34 35 34 34 32 30 27 23 21 20 19 18 17 16 16 15 15 15 15 14 14 13 12 11 11 11 11 10 9 10 10 10 11 11 12 13 13
30 31 32 33 33 34 34 34 35 35 34 32 30 27 23 21 21 20 19 18 17 17 16 15 15 16 16 15 14 13 12 12 12 12 11 11 11 11 11 11 11 12 12 14
30 30 31 32 34 34 35 35 35 35 34 33 31 27 23 22 20 20 19 19 18 17 16 15 16 16 16 16 15 15 14 13 13 12 12 12 11 11 11 12 12 13 13 14
30 30 30 31 32 33 34 34 34 34 34 33 30 27 24 22 21 20 20 19 18 17 16 16 15 15 16 16 16 15 14 13 13 13 12 12 13 13 13 14 15 15 15 15
30 30 30 30 31 32 33 34 34 34 33 32 29 26 23 22 21 21 21 20 19 18 17 16 16 15 15 17 16 15 15 15 15 14 14 14 14 14 14 14 15 16 16 17
31 31 30 31 31 33 34 33 33 33 33 31 29 26 24 23 22 22 21 20 19 18 17 17 16 16 16 16 15 15 15 16 15 15 15 15 15 15 15 15 16 16 16 15
31 31 31 31 31 33 34 33 32 32 31 30 28 25 24 24 23 23 22 21 19 18 17 16 15 15 15 16 16 15 15 15 15 16 16 16 16 15 15 15 16 17 16 15
30 30 30 30 32 35 32 32 32 32 31 29 27 25 24 24 23 23 22 21 21 20 19 18 16 16 16 16 16 16 16 16 16 16 16 17 16 16 16 17 17 18 18 17
30 30 30 32 33 34 33 32 31 32 32 30 28 26 25 24 24 23 22 21 21 21 20 19 18 17 17 17 17 17 16 16 16 16 17 17 17 17 17 17 17 18 18 17
31 31 31 33 34 35 33 32 32 32 32 30 29 27 26 25 25 23 23 23 22 22 20 19 18 18 18 17 17 17 17 17 16 16 17 17 17 17 18 17 17 17 18 18
32 32 32 32 33 34 33 33 33 33 32 30 29 27 26 25 24 23 23 22 23 22 21 21 19 19 19 18 18 17 17 17 17 17 17 17 18 18 18 17 18 18 19 18
32 32 31 31 32 32 31 32 33 32 30 30 29 28 26 26 25 24 24 24 23 23 22 21 20 20 19 18 18 18 18 18 18 18 17 17 17 18 18 18 18 18 18 18
30 30 31 30 29 28 29 30 31 31 30 30 29 27 26 27 26 25 24 24 23 23 23 22 21 20 20 19 19 18 18 18 18 18 18 17 17 17 17 17 16 17 17 17
29 29 29 29 27 27 27 27 28 29 30 30 29 28 27 26 26 25 24 24 24 24 23 22 21 21 21 21 20 19 20 19 19 19 18 18 18 18 17 16 16 16 16 16
28 28 28 27 27 26 26 27 27 27 29 29 30 29 29 27 26 26 24 24 24 24 23 22 21 21 20 20 20 20 20 19 19 19 18 18 18 18 18 18 17 17 17 17
27 27 27 27 27 27 26 27 27 26 27 27 28 28 28 27 27 26 26 24 23 22 21 21 21 21 20 20 20 20 19 19 20 20 20 20 20 20 19 18 18 18 17 18
Wind_Direction
232 232 231 232 233 234 234 233 232 234 240 243 244 243 246 250 253 256 261 266 262 261 271 297 313 310 309 307 307 301 298 298 298 295 290 286 278 280 276 267 268 252 234 228
232 231 230 230 231 233 233 232 232 233 238 242 243 243 245 249 252 254 257 263 258 255 264 281 294 298 300 298 298 301 299 295 292 287 285 282 282 287 283 273 264 249 234 231
231 230 229 230 231 232 232 232 232 234 237 242 243 242 244 247 250 251 255 261 260 257 260 272 284 292 291 293 289 291 292 289 289 287 281 281 277 278 272 264 254 244 234 232
228 228 228 229 231 232 232 232 231 233 236 240 243 244 244 247 250 252 256 259 259 260 259 266 277 286 286 285 282 282 287 287 287 283 276 271 267 268 267 258 251 246 237 234
228 228 229 229 230 231 230 230 230 232 235 238 242 246 245 247 249 254 255 255 257 258 261 265 272 277 279 278 277 277 280 284 285 281 275 271 267 265 265 257 251 250 244 236
226 226 227 227 227 228 228 229 230 232 235 237 241 246 247 247 250 253 253 253 255 255 258 260 264 265 270 272 274 276 281 282 279 276 273 270 268 264 263 255 251 250 245 240
226 226 226 226 225 227 227 228 229 231 234 238 240 244 248 246 248 250 251 253 256 253 254 255 257 260 263 266 272 278 283 283 284 277 273 270 266 262 258 250 249 249 248 246
225 225 225 225 226 227 227 229 231 234 237 240 241 243 246 247 247 248 249 252 256 253 250 248 246 250 255 258 264 273 276 277 283 281 278 274 263 259 258 250 250 251 251 250
224 224 224 223 224 225 226 228 231 234 237 239 241 243 244 245 244 245 245 247 250 249 247 244 242 243 249 254 259 265 269 272 278 280 278 276 267 262 262 259 257 256 254 254
223 223 222 222 222 224 225 227 230 233 237 239 242 242 243 242 242 243 243 244 245 247 246 244 241 244 247 249 254 259 265 271 274 278 280 279 271 263 262 262 267 266 260 255
222 222 221 221 222 224 225 227 229 234 237 239 242 242 242 243 242 242 243 244 247 248 251 247 243 246 248 247 250 258 264 271 274 275 278 277 270 266 265 265 265 268 263 255
221 221 220 221 222 223 225 228 231 234 237 239 242 241 242 242 241 240 241 242 245 248 249 247 246 247 247 251 252 254 260 265 268 270 271 275 276 269 270 272 269 272 268 258
221 220 219 219 221 223 226 227 230 233 236 239 241 241 239 240 238 237 239 239 242 245 243 239 241 246 248 248 249 252 255 260 265 270 271 274 275 272 273 272 273 272 269 261
223 222 221 220 222 225 227 228 230 232 236 239 241 241 238 238 235 234 238 239 241 242 243 242 246 247 248 249 249 251 253 257 264 269 272 274 275 276 274 273 269 269 267 262
224 222 220 218 220 223 227 229 231 233 236 239 240 241 238 236 235 235 237 239 240 240 243 243 246 246 245 248 249 253 254 256 261 267 271 273 275 277 277 275 270 270 268 263
225 223 221 220 221 223 226 228 230 233 235 238 239 239 237 236 235 237 237 240 241 241 243 241 242 245 248 250 251 253 256 257 260 264 268 271 273 275 275 273 273 274 272 265
227 226 224 221 222 225 227 228 230 233 236 239 239 238 235 234 235 236 236 238 239 238 239 237 242 250 249 250 251 253 256 258 260 263 268 271 273 274 275 274 273 274 274 271
228 229 228 224 223 226 228 229 231 233 234 236 237 236 235 234 233 234 235 238 238 239 238 240 246 250 249 251 254 255 256 259 262 266 269 272 273 274 276 276 274 273 273 273
229 230 230 228 227 228 229 229 230 233 235 236 237 235 234 234 232 232 235 235 237 238 239 241 245 248 251 252 257 261 261 263 264 266 269 272 272 273 275 276 273 273 273 271
232 232 232 231 231 230 229 230 232 234 235 235 237 236 235 234 232 232 235 237 236 238 237 237 241 246 251 255 260 264 266 265 265 266 268 271 270 272 275 274 273 274 274 270
231 233 234 234 234 232 230 231 232 234 234 235 236 236 236 234 231 230 231 233 233 236 239 239 243 248 252 257 262 264 265 267 267 267 270 271 270 271 274 274 273 273 272 269
230 232 231 232 233 231 229 230 232 234 233 232 232 234 235 233 229 228 230 233 235 240 245 244 245 248 253 258 261 262 263 266 269 270 271 272 271 271 271 272 271 270 270 271
230 230 230 230 231 229 228 229 230 231 230 230 229 231 233 230 227 230 232 234 238 242 245 246 246 248 252 256 257 260 262 265 268 269 269 269 270 271 270 273 273 271 270 272
227 227 227 227 227 226 225 225 227 228 228 227 227 227 227 227 226 229 231 236 240 241 244 245 245 249 254 256 257 258 261 264 267 268 268 269 270 272 270 273 273 272 272 274
224 224 225 226 226 225 224 225 226 228 227 226 225 225 225 226 228 231 234 237 238 240 240 241 244 249 254 258 258 259 261 263 265 267 268 270 271 272 271 270 269 269 271 273
222 223 224 225 225 224 221 223 224 225 225 224 223 224 224 226 228 230 233 237 238 239 242 245 249 254 257 259 258 259 263 265 267 269 270 271 274 271 270 270 269 268 269 270
Height
5844 5849 5853 5857 5861 5864 5867 5870 5873 5875 5876 5878 5881 5884 5886 5886 5888 5890 5892 5893 5894 5894 5894 5893 5893 5892 5892 5892 5891 5891 5890 5890 5890 5889 5889 5890 5889 5889 5889 5890 5890 5891 5891 5892
5839 5844 5848 5851 5854 5858 5862 5866 5869 5871 5872 5874 5877 5880 5882 5884 5886 5888 5889 5890 5891 5892 5892 5892 5891 5891 5891 5890 5890 5889 5889 5889 5889 5888 5888 5888 5888 5888 5888 5889 5889 5889 5890 5891
5833 5839 5841 5845 5849 5853 5857 5861 5865 5867 5868 5870 5873 5876 5879 5881 5883 5885 5886 5888 5888 5889 5890 5890 5890 5889 5889 5888 5888 5888 5887 5887 5887 5886 5886 5886 5887 5887 5887 5887 5887 5888 5889 5890
5826 5831 5835 5839 5844 5848 5852 5856 5859 5861 5863 5865 5868 5871 5875 5877 5880 5882 5884 5885 5886 5886 5887 5887 5887 5887 5887 5887 5886 5886 5886 5885 5885 5885 5885 5885 5885 5885 5886 5886 5886 5886 5887 5888
5821 5825 5829 5834 5839 5843 5847 5850 5853 5855 5858 5861 5863 5867 5872 5874 5876 5879 5880 5882 5883 5884 5884 5884 5884 5884 5884 5884 5884 5884 5884 5883 5883 5883 5883 5883 5883 5883 5884 5884 5884 5885 5886 5887
5815 5819 5823 5829 5833 5837 5840 5844 5847 5850 5852 5856 5860 5863 5867 5871 5873 5875 5877 5878 5879 5880 5881 5881 5881 5881 5882 5882 5882 5881 5881 5881 5881 5881 5881 5880 5881 5881 5881 5882 5882 5883 5884 5884
5809 5814 5818 5823 5827 5830 5835 5839 5842 5845 5847 5851 5856 5858 5863 5867 5870 5871 5873 5874 5875 5876 5877 5878 5878 5879 5879 5879 5879 5879 5879 5879 5879 5878 5878 5878 5878 5878 5879 5879 5880 5881 5881 5882
5803 5809 5813 5817 5822 5826 5830 5834 5839 5842 5844 5848 5851 5854 5860 5863 5865 5867 5868 5870 5871 5873 5874 5875 5875 5876 5877 5877 5877 5877 5877 5876 5876 5876 5875 5875 5875 5875 5876 5876 5877 5878 5879 5879
5798 5803 5808 5812 5817 5821 5824 5828 5833 5836 5839 5843 5846 5850 5855 5858 5861 5863 5864 5866 5868 5869 5870 5871 5872 5873 5874 5875 5875 5875 5874 5874 5874 5873 5873 5872 5872 5873 5873 5874 5875 5875 5876 5876
5792 5798 5802 5806 5811 5815 5820 5824 5827 5830 5834 5837 5841 5846 5851 5854 5856 5859 5861 5863 5864 5866 5867 5868 5869 5870 5871 5872 5872 5872 5872 5872 5871 5870 5869 5869 5870 5870 5871 5871 5871 5872 5872 5873
5787 5792 5797 5801 5805 5810 5814 5818 5822 5825 5829 5833 5837 5844 5847 5850 5852 5855 5857 5859 5861 5862 5863 5865 5866 5867 5868 5869 5869 5869 5869 5869 5869 5868 5868 5868 5868 5868 5868 5868 5868 5869 5869 5870
5782 5786 5791 5796 5800 5804 5809 5813 5817 5821 5824 5828 5833 5840 5842 5845 5848 5850 5853 5855 5857 5858 5860 5861 5863 5864 5865 5866 5866 5867 5867 5867 5866 5866 5866 5866 5865 5866 5866 5866 5866 5866 5866 5866
5776 5781 5786 5790 5796 5799 5803 5807 5811 5816 5819 5823 5827 5835 5837 5840 5843 5846 5848 5851 5852 5854 5856 5857 5859 5860 5861 5862 5863 5863 5864 5864 5864 5864 5864 5864 5864 5864 5864 5864 5863 5863 5863 5863
5771 5776 5782 5787 5790 5794 5798 5802 5806 5810 5814 5818 5823 5828 5832 5835 5838 5841 5844 5846 5848 5850 5852 5853 5855 5856 5858 5859 5859 5860 5860 5860 5861 5861 5861 5861 5861 5861 5861 5861 5860 5860 5860 5860
5766 5771 5775 5780 5784 5789 5793 5797 5801 5805 5809 5813 5818 5822 5827 5831 5834 5837 5839 5842 5844 5846 5848 5850 5851 5853 5854 5855 5855 5856 5856 5857 5858 5858 5858 5858 5858 5858 5857 5857 5857 5857 5857 5856
5761 5766 5770 5775 5779 5783 5787 5791 5795 5799 5803 5808 5812 5817 5822 5825 5828 5831 5834 5837 5839 5842 5844 5845 5847 5848 5849 5851 5852 5853 5853 5854 5854 5854 5854 5854 5854 5854 5854 5853 5853 5853 5852 5852
5756 5761 5765 5770 5774 5777 5781 5786 5790 5794 5798 5803 5807 5814 5816 5820 5823 5826 5829 5832 5835 5837 5839 5841 5843 5844 5845 5847 5848 5849 5849 5849 5850 5850 5851 5850 5850 5850 5850 5850 5849 5849 5849 5849
5751 5755 5759 5763 5768 5771 5779 5782 5785 5789 5793 5798 5802 5807 5811 5815 5818 5821 5824 5827 5830 5833 5835 5838 5839 5840 5841 5843 5843 5844 5845 5846 5846 5846 5846 5846 5846 5846 5846 5845 5845 5845 5845 5844
5745 5749 5753 5757 5761 5765 5772 5776 5780 5784 5788 5793 5797 5802 5806 5810 5813 5817 5820 5822 5825 5828 5831 5833 5835 5836 5837 5838 5839 5840 5841 5841 5842 5842 5842 5842 5842 5841 5841 5841 5841 5840 5840 5840
5738 5742 5747 5750 5754 5759 5767 5770 5774 5779 5782 5787 5791 5796 5800 5804 5808 5812 5815 5818 5821 5823 5826 5828 5830 5831 5832 5834 5835 5836 5837 5837 5836 5837 5837 5837 5837 5837 5836 5836 5836 5836 5836 5836
5732 5735 5740 5744 5747 5753 5760 5764 5768 5773 5778 5782 5786 5790 5794 5798 5803 5807 5809 5812 5815 5819 5821 5823 5825 5826 5828 5829 5830 5831 5832 5832 5831 5832 5832 5833 5832 5832 5832 5831 5831 5832 5832 5831
5725 5729 5733 5737 5741 5749 5753 5757 5762 5766 5771 5775 5779 5784 5788 5792 5796 5800 5804 5807 5811 5813 5816 5818 5820 5821 5823 5824 5825 5826 5827 5827 5827 5828 5828 5828 5828 5828 5828 5827 5827 5827 5827 5827
5719 5724 5728 5732 5738 5742 5746 5750 5755 5759 5764 5768 5773 5778 5782 5786 5791 5795 5798 5802 5805 5808 5810 5812 5814 5816 5818 5818 5820 5821 5822 5823 5823 5823 5823 5823 5823 5823 5823 5823 5823 5823 5823 5823
5713 5717 5722 5726 5731 5735 5740 5744 5748 5752 5757 5762 5767 5772 5776 5781 5785 5790 5793 5796 5800 5802 5805 5807 5809 5811 5813 5814 5815 5816 5817 5818 5818 5818 5818 5818 5819 5819 5819 5819 5819 5819 5819 5819
5708 5712 5716 5720 5725 5730 5734 5738 5742 5746 5751 5755 5761 5765 5771 5775 5780 5784 5788 5791 5794 5796 5799 5802 5804 5806 5808 5808 5809 5811 5812 5813 5813 5814 5814 5814 5814 5814 5814 5814 5814 5814 5815 5815
5703 5707 5711 5715 5720 5724 5729 5732 5736 5741 5745 5750 5755 5760 5765 5770 5774 5778 5782 5786 5788 5791 5794 5797 5799 5801 5802 5803 5804 5805 5806 5807 5808 5808 5809 5809 5809 5809 5809 5809 5809 5809 5810 5809